Flag for Germany Weather past 2 weeks in Lutherstadt Eisleben, Saxony-Anhalt, Germany

Now
59 °F

Overcast.


Feels Like: 57 °F
Forecast: 50 / 60 °F
Wind: 12 mph from West

Location: Leipzig-Schkeuditz

Current Time: Sep 5, 2015 at 7:04:33 PM

Latest Report: Sep 5, 2015 at 6:00 PM


Visibility: 37 mi

Pressure: 29.86 "Hg

Humidity: 74%

Dew point: 50 °F

Location of Lutherstadt EislebenLocation

Historic Weather in Lutherstadt Eisleben — Graph

°F

Lutherstadt Eisleben temperature yesterday

Maximum temperature yesterday: 65 °F (at 4:00 PM)
Minimum temperature yesterday: 50 °F (at 7:00 AM)
Average temperature yesterday: 58 °F

Past Weeks' High & Low Weather Summary

 TemperatureHumidityPressure
High92 °F (Aug 31, 4:00 PM)99% (Sep 4, 4:00 AM)30.28 "Hg (Sep 4, 4:00 AM)
Low50 °F (Sep 4, 7:00 AM)27% (Aug 22, 5:00 PM)29.68 "Hg (Aug 24, 7:00 PM)
Average66 °F70%29.97 "Hg
* Reported Aug 21 6:00 PM — Sep 5 6:00 PM, Lutherstadt Eisleben, Weather by CustomWeather, © 2015

Note: Actual official high and low records may vary slightly from our data, if they occured in-between our weather recording intervals... More about our weather records

Advertising

Lutherstadt Eisleben weather history for previous 24 hours

 ConditionsComfort  
Time TempWeatherWind HumidityBarometerVisibility
6:00 PM
Sat, Sep 5
59 °FOvercast.12 mph74%29.86 "Hg37 mi
4:00 PM67 °FOvercast.10 mph49%29.85 "Hg43 mi
3:00 PM65 °FPartly sunny.12 mph56%29.86 "Hg43 mi
2:00 PM64 °FPartly sunny.9 mph63%29.87 "Hg37 mi
1:00 PM61 °FOvercast.9 mph62%29.89 "Hg37 mi
12:00 PM62 °FScattered clouds.9 mph61%29.88 "Hg31 mi
10:00 AM59 °FScattered clouds.9 mph70%29.88 "Hg31 mi
9:00 AM56 °FScattered clouds.10 mph76%29.89 "Hg31 mi
8:00 AM54 °FPartly sunny.9 mph79%29.88 "Hg31 mi
7:00 AM54 °FOvercast.9 mph79%29.86 "Hg19 mi
4:00 AM52 °FPassing clouds.6 mph75%29.88 "Hg37 mi
3:00 AM53 °FClear.7 mph72%29.89 "Hg31 mi
2:00 AM52 °FPassing clouds.6 mph74%29.90 "Hg31 mi
1:00 AM52 °FPassing clouds.3 mph75%29.92 "Hg31 mi
11:00 PM
Fri, Sep 4
54 °FPassing clouds.3 mph69%29.92 "Hg37 mi
10:00 PM57 °FPassing clouds.5 mph64%29.93 "Hg31 mi
9:00 PM56 °FPassing clouds.3 mph67%29.93 "Hg31 mi
8:00 PM59 °FPassing clouds.5 mph57%29.92 "Hg37 mi
7:00 PM62 °FPartly sunny.7 mph48%29.91 "Hg31 mi
Weather by CustomWeather, © 2015

See weather overviewHow to use our weather pages